Theta_e
303 294 291 290 291 294 296 297 295 288 290 288 288 287 285 285 286 286 287 291 292 291 289 291 292 291 293 295 297 297 295 293 293 294 296 297 298 299 299 299 300 300 302 304 304 304 304 305 306 307 307 308 310 314 317 318 318 319 320 318 318 319 319 320 319 319 319 318 318 318 319 319 320 320 320 320 321 322 323 322 323 323 324 325 325 326
299 290 290 292 291 293 295 296 296 293 289 288 286 285 287 284 286 287 290 290 290 291 285 286 287 289 291 294 296 297 293 293 293 294 294 296 297 298 298 299 300 301 301 301 302 304 302 303 304 304 305 306 307 310 313 316 318 319 319 318 319 318 319 320 320 320 320 320 320 320 320 320 320 319 318 320 321 321 321 321 321 322 322 323 323 323
294 290 292 293 293 292 294 296 295 294 292 287 287 284 283 285 284 287 289 290 291 289 287 286 289 291 292 293 295 294 295 295 295 296 297 297 297 297 298 299 300 300 301 302 302 303 304 304 303 302 304 306 308 308 312 315 316 317 318 319 319 319 319 319 320 320 320 321 321 321 319 320 318 319 321 320 320 320 321 321 321 321 321 322 322 322
288 291 294 294 294 293 291 294 295 294 293 292 286 283 284 282 283 279 283 288 291 291 284 285 287 289 291 292 293 295 296 296 296 296 297 298 298 298 298 300 300 300 301 301 302 303 303 303 303 300 301 303 306 308 309 312 315 317 318 319 319 319 319 319 320 319 321 321 320 320 317 315 320 317 316 318 317 319 319 320 322 322 322 321 321 321
289 292 297 294 294 294 291 292 294 293 291 293 291 287 285 284 284 284 283 288 289 287 288 287 287 288 290 290 291 294 296 295 295 294 295 296 296 298 298 298 299 300 301 301 302 302 303 303 304 304 303 301 304 306 309 311 314 317 318 319 319 320 319 320 319 319 320 318 316 317 314 312 314 312 313 312 316 318 318 319 320 321 321 321 321 321
291 292 296 294 293 293 291 289 292 293 290 291 293 292 290 285 286 286 288 288 285 283 283 286 278 279 281 288 289 291 291 292 293 293 294 296 296 296 297 298 300 300 301 301 302 303 303 302 302 301 301 301 301 303 306 309 312 314 317 318 318 319 319 319 319 319 319 318 318 316 316 315 315 316 314 315 317 317 317 318 319 318 320 321 321 321
292 291 294 293 292 291 291 290 291 292 288 286 286 293 291 289 288 287 286 287 282 280 285 285 279 278 282 282 284 287 287 290 289 290 293 295 296 297 298 299 300 301 301 301 301 301 301 302 301 301 301 301 301 304 304 304 308 312 315 317 318 319 319 320 319 318 318 318 318 317 318 318 317 317 317 319 318 317 316 316 317 318 317 320 320 320
292 291 292 292 292 290 290 288 290 292 287 283 285 291 293 291 289 288 288 287 285 286 288 286 285 279 281 286 282 285 286 287 288 289 289 292 294 296 298 299 299 301 301 301 301 301 301 300 300 301 301 300 302 303 303 304 304 307 311 313 316 318 318 319 318 318 318 318 318 317 317 317 316 317 318 316 316 315 314 314 316 317 317 318 319 320
293 288 292 291 292 292 290 292 293 293 289 286 289 292 291 291 290 289 288 286 285 284 282 285 284 282 281 282 286 285 284 286 288 289 290 291 293 294 295 297 299 300 300 300 301 301 300 298 299 299 300 301 301 301 302 303 304 305 307 310 312 316 317 316 316 317 317 318 318 317 316 315 317 317 318 316 312 313 314 315 315 315 316 317 318 319
288 295 293 295 293 291 294 296 295 294 290 290 291 292 291 291 290 289 285 284 284 284 279 283 285 279 280 282 284 285 285 286 286 289 292 293 294 295 296 297 297 297 297 298 299 298 298 298 298 299 299 300 300 300 301 301 302 303 305 309 311 314 315 316 316 317 317 317 317 317 317 316 317 317 317 314 315 314 312 313 315 315 316 316 316 317
289 292 297 295 293 295 295 294 296 295 293 291 292 289 286 284 285 283 283 283 283 280 281 285 285 283 277 282 284 284 285 286 288 290 291 293 293 294 295 296 297 297 298 298 297 297 297 297 298 297 298 298 299 299 298 299 299 301 305 307 308 310 311 314 316 317 317 317 317 318 317 317 317 316 315 314 315 315 312 314 315 314 315 314 316 315
288 290 292 288 294 290 295 290 292 296 292 292 286 284 287 284 285 286 285 285 280 277 283 286 285 285 277 279 283 288 286 288 292 291 292 294 295 296 295 296 297 297 297 296 296 296 296 296 297 297 297 297 298 298 300 299 299 300 302 305 306 305 307 310 312 315 316 317 317 317 317 316 317 316 316 315 315 315 314 314 314 314 313 314 315 315
286 288 289 289 291 295 289 290 289 294 290 292 286 288 283 278 283 278 283 278 279 277 281 286 286 280 281 286 283 283 288 289 290 293 294 295 296 297 297 298 298 297 295 294 294 295 296 296 297 297 297 297 298 299 300 301 301 301 302 303 304 305 304 305 307 311 311 313 315 316 316 316 316 315 315 315 315 315 314 315 314 313 314 313 313 314
286 290 290 289 289 294 294 288 287 287 290 290 288 286 281 277 277 273 278 281 281 282 283 283 285 280 285 288 292 292 293 292 292 293 295 295 296 297 297 296 296 295 294 295 295 295 295 296 296 296 297 297 297 297 299 300 302 303 303 303 303 303 304 305 307 306 307 308 311 313 313 314 314 314 314 315 316 316 316 316 315 315 315 315 315 315
279 280 285 290 286 293 294 292 292 290 291 290 291 290 284 282 278 273 276 275 277 278 281 285 282 277 282 282 285 288 291 294 295 294 294 295 296 296 295 294 294 294 294 294 294 295 295 296 296 298 297 297 297 297 298 299 300 301 301 302 301 301 301 302 303 304 305 306 307 307 309 312 313 313 313 314 315 316 315 315 315 316 315 315 316 316
283 284 290 294 292 295 292 294 294 292 291 292 292 291 285 282 286 276 275 275 276 272 277 280 282 284 286 289 287 286 286 288 288 292 293 294 295 294 295 296 296 296 295 295 293 295 295 295 296 297 297 297 297 297 297 298 298 299 299 299 299 300 299 300 301 301 302 302 303 303 304 305 306 306 308 309 310 312 313 314 314 315 315 316 316 317
285 282 290 292 294 292 293 294 291 295 281 289 290 284 287 286 282 277 279 276 272 271 273 281 282 285 289 292 293 292 289 288 288 289 290 294 296 294 295 296 296 295 294 293 294 295 294 294 295 296 296 296 297 298 298 297 296 297 298 298 298 298 298 299 299 299 299 300 300 300 301 301 302 303 303 305 306 307 309 310 311 312 313 314 315 316
282 283 289 288 287 292 295 295 293 295 290 290 284 289 289 288 285 284 278 270 268 272 272 283 279 281 281 279 286 290 291 291 291 289 288 288 289 292 295 297 296 296 295 295 294 293 293 294 295 295 295 295 296 296 297 297 295 296 296 296 297 297 297 297 297 298 298 298 298 298 298 299 299 299 300 301 302 303 303 304 306 307 307 308 310 311
286 280 279 287 290 291 290 292 289 294 295 291 288 296 287 279 280 282 277 274 268 271 265 275 280 281 283 283 282 282 286 290 289 289 287 291 291 293 294 295 294 295 295 295 294 295 294 294 294 294 294 294 294 294 294 294 295 295 294 295 295 296 295 295 296 295 296 296 297 297 296 296 297 297 297 298 298 299 299 300 301 302 303 304 305 305
283 279 280 286 288 288 290 290 282 287 289 289 292 291 288 286 283 282 282 281 280 273 271 272 279 277 285 285 284 282 282 286 286 287 289 291 293 294 293 294 295 294 295 295 294 294 294 294 293 293 293 293 293 292 292 292 293 293 293 294 294 294 293 293 294 294 294 294 294 294 295 295 295 295 296 295 296 297 296 298 298 298 299 300 301 302
284 284 278 282 285 288 282 287 285 287 284 285 286 285 285 285 285 282 282 282 276 271 275 272 272 277 282 286 287 288 288 286 287 289 290 291 293 293 294 295 294 294 295 294 294 294 294 294 293 292 292 291 291 290 290 291 291 291 292 292 292 292 292 293 293 293 293 293 293 293 294 294 294 294 294 294 294 294 295 295 295 296 297 297 298 299
278 281 278 281 280 282 284 290 291 290 289 288 287 285 287 285 281 277 276 285 281 276 269 272 273 279 278 284 290 289 290 290 289 290 291 292 293 293 292 292 292 294 293 294 294 293 293 292 292 291 291 291 290 290 291 291 290 290 291 291 290 291 291 291 292 292 292 292 292 292 292 292 292 292 293 292 293 293 293 293 294 294 295 295 296 297
287 280 281 279 280 283 287 289 288 289 289 290 290 286 289 288 286 281 275 278 278 282 281 272 271 279 284 284 287 287 288 288 289 290 291 292 292 291 289 289 289 292 294 293 293 292 291 290 290 290 290 290 290 290 289 289 290 290 289 289 289 290 289 290 290 290 291 291 291 291 290 290 290 290 290 290 291 290 291 291 292 293 293 294 294 295
291 279 274 277 281 283 285 284 283 285 288 287 288 289 288 285 286 284 282 282 277 275 279 276 277 281 287 283 287 287 284 284 286 287 291 291 291 289 288 287 289 292 291 290 289 289 289 289 288 288 288 289 290 289 289 289 289 288 288 288 288 288 288 289 289 290 290 289 289 289 289 289 288 288 288 288 289 288 288 289 290 290 291 292 293 293
283 282 283 277 274 275 281 282 281 282 285 285 285 287 288 288 288 281 276 275 279 280 282 279 274 280 284 283 284 284 283 285 287 288 288 291 289 289 288 287 290 291 291 290 290 290 288 288 288 289 289 289 289 288 288 289 289 288 288 287 288 288 288 287 287 287 288 287 287 286 287 286 286 286 287 287 286 286 286 286 287 288 290 290 290 291
286 284 282 275 272 271 270 272 274 278 281 285 283 287 287 286 285 283 281 280 278 281 282 279 278 284 284 284 285 284 284 285 287 290 289 289 290 290 287 288 291 291 291 290 289 288 288 288 287 286 287 288 288 288 288 288 287 287 287 287 287 286 286 286 286 286 285 284 285 285 285 285 285 285 285 284 285 285 286 286 286 287 287 288 289 289
281 286 285 282 280 278 280 282 285 286 284 282 282 285 285 287 287 287 285 282 278 281 281 282 283 284 285 284 285 283 285 287 288 286 288 289 288 286 286 290 291 291 291 290 289 289 286 285 287 287 287 286 286 285 285 285 286 284 284 284 284 284 285 285 284 284 284 283 284 284 284 284 284 284 284 284 284 284 284 285 284 285 286 285 286 286
278 281 283 283 283 283 284 283 283 286 283 284 284 284 285 285 286 285 283 280 286 282 278 284 285 283 284 287 286 283 285 287 288 288 289 290 290 288 289 290 291 289 288 287 286 286 287 287 286 286 287 286 286 284 284 284 283 283 283 284 283 283 283 285 283 283 283 283 283 283 283 283 283 284 284 284 285 286 287 286 286 286 285 285 285 285
282 280 284 284 283 284 285 285 284 283 284 284 285 285 284 285 285 283 283 286 286 282 279 285 286 284 285 288 289 289 288 289 289 288 290 291 288 286 288 289 290 290 289 288 288 287 286 286 287 286 286 286 284 284 283 283 283 282 283 282 283 282 283 283 283 282 282 282 283 282 282 282 283 283 283 284 284 285 284 285 284 285 285 285 285 286
283 281 284 284 283 284 284 284 284 282 282 283 284 285 286 286 285 285 285 286 286 284 286 287 286 286 288 289 290 291 288 289 290 288 284 285 286 287 289 290 290 290 289 288 288 287 287 287 287 286 286 284 284 284 283 283 282 282 282 282 281 282 282 281 282 282 282 283 282 282 282 282 282 282 283 283 284 284 284 284 284 284 285 285 284 284
284 280 286 284 281 281 284 284 284 283 283 281 282 284 285 285 285 286 286 286 286 286 286 286 285 285 290 291 290 291 288 288 287 286 287 288 287 287 289 290 290 290 290 289 288 288 287 286 285 285 285 285 285 285 285 284 283 282 281 282 282 282 281 281 282 282 282 282 281 281 281 281 281 281 282 281 281 282 282 283 283 283 284 284 284 285
284 280 284 282 279 278 283 283 283 283 283 281 281 282 282 282 281 283 283 286 285 283 285 285 283 284 290 292 293 293 287 286 287 288 289 289 288 288 289 290 290 290 290 289 289 288 286 285 285 285 286 286 285 284 284 283 282 281 282 281 281 282 281 280 281 281 281 281 281 281 280 281 280 281 281 281 281 281 282 282 282 283 283 283 284 284
283 282 280 279 277 277 282 283 282 281 280 277 278 282 283 284 284 285 286 287 287 287 284 282 283 289 291 293 291 291 292 287 287 288 290 290 290 288 289 291 291 291 291 290 289 287 286 286 286 287 287 286 286 285 284 284 283 283 283 282 281 280 280 280 280 280 281 281 281 281 280 280 280 280 280 281 281 281 281 281 282 283 283 283 283 283
283 283 280 282 276 278 281 280 279 278 272 273 285 287 286 284 284 282 282 284 286 288 287 289 289 291 292 291 291 291 291 291 287 289 292 293 291 289 288 291 291 292 291 291 289 288 287 287 287 287 287 287 285 285 284 283 284 284 283 282 281 280 280 281 280 280 281 281 281 281 280 280 279 280 280 281 281 281 281 282 282 281 282 282 282 283
282 282 280 281 277 276 279 279 275 271 273 285 290 290 289 288 287 285 286 286 287 287 288 288 289 290 291 292 292 292 293 294 292 289 290 292 294 292 290 289 290 290 290 289 288 287 287 287 287 286 285 285 285 283 283 283 281 282 281 281 281 280 281 280 280 280 280 280 280 280 280 280 279 279 279 279 280 280 280 281 281 282 282 282 282 282
281 280 280 278 278 278 276 275 269 271 282 282 284 286 289 289 288 286 284 286 287 288 288 287 289 290 291 291 292 293 293 293 290 289 290 291 290 291 290 290 290 290 290 290 289 288 287 287 287 287 287 286 284 283 284 284 282 282 283 281 281 281 280 280 280 280 280 279 279 279 279 279 279 279 279 279 279 280 280 280 280 281 281 281 281 281
284 282 281 277 281 272 275 275 273 280 280 281 282 283 285 283 283 283 279 284 288 289 289 288 289 290 291 291 292 292 288 286 286 287 287 289 289 290 292 292 292 292 292 291 290 289 289 289 288 287 286 285 284 284 284 283 282 283 282 281 280 280 280 279 280 280 279 280 279 279 279 279 279 279 278 278 279 279 280 280 280 280 279 281 281 281
285 281 282 278 277 279 275 273 273 273 270 276 283 286 289 289 289 288 285 282 289 289 290 289 288 290 290 291 291 291 286 287 285 288 291 288 290 290 291 292 293 292 291 291 289 289 288 287 286 285 286 284 284 284 283 282 282 282 282 282 280 280 279 279 280 280 279 280 279 279 278 278 278 278 278 278 279 279 279 279 279 279 280 280 281 281
285 285 283 279 277 277 275 272 272 270 273 281 282 284 287 289 289 287 283 280 288 290 290 290 289 290 290 290 290 286 284 284 285 289 294 292 289 290 290 290 290 290 290 290 289 288 287 287 286 284 284 284 283 282 282 282 282 282 282 281 281 280 280 280 279 279 280 280 279 278 279 278 278 278 278 278 278 278 279 279 279 279 279 280 280 281
282 281 280 277 276 277 275 273 271 275 275 281 283 283 283 287 288 285 275 276 288 291 291 290 289 290 291 291 286 285 286 284 286 290 295 292 289 290 290 290 288 287 287 288 288 289 288 285 283 282 283 283 283 282 281 281 282 282 282 281 280 280 280 279 280 280 278 278 278 278 278 278 278 277 277 277 277 277 278 279 279 279 279 280 279 280
279 279 280 275 277 277 277 274 276 276 279 284 282 283 282 288 287 277 273 282 290 291 292 292 290 291 292 287 286 287 289 291 293 295 292 286 288 289 290 291 290 289 288 288 287 287 285 285 286 285 284 284 282 281 281 282 282 281 281 280 280 280 280 279 277 278 278 278 278 278 278 277 278 277 276 276 277 276 277 278 279 279 279 279 280 280
278 279 279 280 276 275 276 274 274 278 283 285 281 283 287 286 276 276 286 292 291 289 290 292 291 291 291 288 288 290 293 293 294 294 287 285 289 289 289 289 288 286 287 286 286 286 285 284 284 282 281 281 281 281 281 282 282 281 280 280 280 280 278 278 277 277 277 278 278 278 277 277 276 275 275 274 274 277 277 276 277 278 278 278 279 279
278 277 275 276 278 279 278 274 274 271 281 288 284 282 285 281 283 289 290 287 289 290 288 289 291 292 291 289 289 291 292 292 292 292 293 285 285 286 287 286 287 286 286 285 284 285 285 284 283 282 281 281 280 281 281 281 280 279 279 280 280 278 278 278 278 277 278 277 277 275 274 274 273 273 274 274 274 275 276 277 275 276 275 277 278 278
284 277 277 279 282 275 275 272 274 282 287 287 287 281 285 288 291 289 288 288 287 285 286 286 288 290 290 290 290 290 291 291 292 290 285 284 285 285 285 286 286 286 285 286 286 285 285 284 283 282 281 280 280 280 280 281 280 279 278 279 278 277 276 277 277 277 276 274 275 274 273 273 273 273 272 273 273 273 274 276 275 275 276 276 276 277
283 280 282 277 283 279 277 280 284 286 287 287 289 288 290 291 290 283 286 288 288 285 283 285 288 288 289 290 291 291 290 290 291 287 285 284 284 284 284 285 285 285 285 284 284 284 284 283 282 281 280 279 278 279 279 279 279 275 277 278 277 277 277 276 274 273 273 273 272 272 272 272 272 272 272 272 273 273 273 273 273 275 276 275 276 277
285 286 285 283 280 284 285 282 285 286 284 284 286 287 288 289 286 287 287 287 287 287 286 287 288 289 289 289 290 289 289 289 286 285 284 284 284 284 285 285 284 284 284 284 283 282 282 282 281 281 279 278 277 278 276 276 277 277 276 276 276 275 274 272 271 272 272 271 271 271 271 270 271 271 271 271 272 272 274 274 275 275 276 275 276 276
281 283 283 280 279 281 277 284 283 285 286 287 287 286 284 284 287 287 288 289 290 288 287 287 288 288 288 286 287 288 288 285 285 286 285 284 284 284 284 284 284 284 283 282 282 281 281 281 280 280 279 278 276 276 274 273 274 276 274 273 273 272 269 269 271 271 270 270 270 270 271 270 271 273 273 272 273 274 275 275 275 276 276 275 275 275
278 283 282 281 281 280 280 283 285 287 287 286 286 285 285 287 287 286 288 289 288 285 285 287 285 284 283 284 285 286 287 286 285 284 284 284 284 284 284 284 283 282 281 282 280 281 281 281 280 279 279 279 277 275 274 272 272 272 271 270 269 267 268 269 269 271 270 269 270 269 271 271 275 275 273 274 274 274 275 275 275 275 275 276 276 276
280 283 276 279 280 283 283 283 280 281 284 286 285 286 289 290 290 288 286 286 286 286 286 284 284 286 284 286 285 285 285 284 285 285 285 284 284 284 284 283 282 282 280 279 278 280 281 280 279 278 279 279 277 274 272 271 270 269 269 270 268 266 268 270 271 270 267 268 269 271 271 271 272 272 273 273 274 274 275 275 275 276 276 277 278 277
281 279 280 281 279 278 280 283 285 279 281 285 287 288 288 287 286 287 286 286 286 286 286 285 285 283 283 284 284 285 286 285 284 285 285 285 284 283 281 280 279 279 279 278 278 279 278 278 278 277 278 277 274 273 273 271 270 268 269 267 267 268 270 269 269 269 269 269 269 269 270 271 272 272 273 273 273 274 274 277 279 279 277 277 279 281
282 283 282 280 280 279 285 287 288 287 286 287 288 288 288 287 286 287 287 287 288 288 287 286 286 283 283 284 284 286 286 285 284 284 284 283 281 281 280 279 279 278 277 277 277 277 277 276 276 276 275 274 273 273 272 271 269 268 268 269 269 269 268 268 268 269 269 270 270 271 270 271 271 272 272 273 273 273 273 274 276 280 281 282 281 282
Wind_Speed
3 8 9 12 14 12 13 14 7 2 0 2 2 2 4 6 6 2 2 3 1 1 7 9 9 8 12 15 15 9 2 4 5 7 9 10 10 10 10 10 11 12 14 9 7 6 8 8 6 6 4 5 5 6 7 7 8 9 10 7 10 9 7 8 8 8 9 9 7 6 10 12 10 9 8 8 8 8 9 9 9 10 10 10 10 11
5 8 14 14 5 7 8 5 3 3 2 2 2 5 7 4 8 2 1 2 3 2 3 1 3 9 12 13 16 11 5 9 9 10 11 14 12 10 11 13 13 14 7 6 7 9 6 6 6 5 4 5 5 7 6 9 11 8 7 9 11 6 8 10 11 10 9 9 11 11 11 11 8 7 8 10 8 9 7 8 10 10 10 10 11 10
11 17 16 6 5 4 5 8 6 7 6 1 3 2 2 7 2 6 5 3 2 1 8 3 11 13 11 12 14 12 15 9 10 12 15 13 11 10 10 12 13 10 12 8 8 8 7 7 5 4 4 6 8 5 6 8 5 6 8 10 8 8 9 10 10 9 11 11 10 9 5 7 5 5 7 7 6 6 8 9 10 10 9 10 10 10
12 13 10 6 5 7 4 7 8 6 5 8 5 3 9 2 3 4 1 2 1 4 3 1 8 12 11 11 15 16 14 14 10 14 14 12 13 13 13 12 11 12 13 12 9 8 7 6 6 4 6 6 4 5 5 5 8 6 8 8 9 9 9 8 10 12 12 8 6 5 3 3 6 5 4 5 5 6 8 11 9 9 10 9 9 9
14 1 8 8 10 9 7 6 10 10 11 8 7 5 5 3 2 4 4 2 3 3 1 4 9 13 11 13 10 14 17 16 12 7 10 11 10 10 7 7 9 13 11 10 10 9 7 7 7 6 5 3 5 5 6 7 8 7 9 10 10 9 10 9 10 12 8 5 5 4 2 2 1 1 2 3 6 8 8 7 9 12 8 9 9 8
13 9 4 10 7 10 7 5 11 9 9 7 10 12 7 2 4 1 2 4 6 6 0 1 6 10 3 12 15 8 5 11 6 7 11 12 11 8 11 14 12 11 9 10 10 11 8 6 6 5 5 5 5 5 6 4 4 5 6 6 6 7 7 9 11 10 8 9 8 7 7 7 7 8 6 9 13 10 9 11 4 4 6 7 8 8
10 2 5 10 12 10 12 11 6 8 9 4 7 10 8 7 4 3 2 2 4 7 1 1 7 13 2 2 3 6 4 10 3 5 8 11 12 10 13 12 11 12 11 8 8 8 8 9 6 7 6 5 5 8 5 3 5 6 7 6 7 7 7 7 6 7 8 8 8 11 11 10 10 10 9 9 5 1 1 3 5 5 4 7 8 8
4 7 6 6 9 11 9 9 5 11 6 6 3 10 12 12 9 7 4 6 7 0 4 1 2 5 14 10 4 5 5 7 7 6 7 9 9 12 12 12 11 12 11 9 9 9 8 7 5 8 5 4 7 7 5 6 4 4 6 5 6 7 8 7 5 7 8 9 8 7 7 6 5 7 9 3 1 2 3 4 5 5 6 6 8 9
12 6 13 10 9 9 12 13 8 12 9 4 4 10 9 9 8 5 5 5 2 4 11 5 3 5 9 5 2 3 6 7 9 8 8 10 10 10 11 13 14 13 10 8 9 9 6 5 5 5 6 6 5 4 4 5 5 4 4 5 5 6 6 4 5 7 8 7 7 6 5 6 7 7 8 5 2 3 4 5 5 6 7 7 8 8
1 14 15 13 12 13 11 11 11 15 12 2 4 3 3 5 5 6 5 4 3 2 15 11 7 7 19 4 3 0 4 8 6 9 12 11 11 12 13 13 11 6 6 6 8 5 3 4 5 5 5 5 4 4 4 4 4 4 4 5 6 7 5 5 7 9 9 9 8 9 9 11 10 8 7 4 6 5 4 5 7 6 6 6 5 7
4 5 8 11 13 11 9 5 11 14 5 4 6 6 5 4 2 2 2 2 1 11 19 6 11 8 12 3 9 6 7 7 8 7 6 6 7 8 10 9 7 6 7 7 5 4 5 4 4 4 4 4 5 4 3 3 2 3 4 4 3 1 3 5 7 8 9 9 9 9 10 10 10 8 5 5 7 6 4 7 7 6 6 5 6 6
3 3 5 3 3 3 6 3 1 6 6 7 3 4 6 3 3 2 1 3 8 11 13 9 11 10 9 3 4 5 2 6 12 11 11 10 10 8 6 7 8 8 5 3 2 3 2 3 2 2 3 4 5 4 5 4 3 2 1 1 3 3 1 1 4 5 6 6 8 6 6 8 9 6 5 7 8 7 6 5 6 6 4 6 6 6
8 7 2 1 2 12 4 7 1 7 4 7 5 7 8 4 5 6 5 11 12 12 1 14 10 1 12 23 4 5 7 7 6 7 10 10 9 8 8 10 6 2 3 4 3 3 3 2 0 1 1 1 3 4 4 4 4 4 6 6 7 6 5 4 1 2 4 4 5 5 6 5 5 4 5 5 6 6 5 5 5 5 6 6 5 7
6 4 7 5 3 6 11 12 7 7 9 9 9 7 8 6 8 8 10 3 5 4 4 4 4 4 6 17 15 23 17 11 10 10 9 8 9 9 7 4 4 3 2 3 3 3 3 0 1 1 2 2 3 4 4 4 5 5 7 7 9 6 6 5 6 5 4 1 0 1 3 4 4 5 5 6 6 7 6 5 6 6 6 6 7 7
8 12 12 12 8 9 14 13 14 6 11 12 5 11 11 10 6 11 8 12 9 6 1 5 4 7 10 7 3 4 5 8 7 7 6 6 7 6 4 3 3 4 3 1 2 2 2 1 3 5 4 4 4 4 4 4 5 6 7 7 8 8 7 7 7 7 7 6 5 4 2 1 1 2 3 4 3 4 4 4 5 6 5 6 6 6
20 12 6 19 4 16 13 9 9 9 7 10 10 6 8 14 2 5 3 3 3 2 2 4 8 5 12 3 2 3 3 4 3 5 6 8 8 6 6 6 6 4 4 1 1 3 3 4 4 5 4 4 4 5 5 5 4 7 6 6 7 7 5 6 7 6 6 5 6 6 6 5 4 3 2 2 2 3 3 4 4 5 5 5 5 5
3 11 10 15 11 15 16 9 5 13 10 8 8 13 11 3 6 1 3 1 3 2 9 4 7 11 8 16 11 6 1 4 0 3 3 9 10 6 8 8 6 4 3 0 4 5 5 4 4 4 4 4 4 5 6 5 4 5 5 6 7 6 6 7 6 6 5 5 6 5 5 5 6 5 5 4 4 4 4 4 4 4 4 4 3 5
6 5 9 14 11 10 12 14 9 15 4 6 13 11 3 1 2 4 10 2 1 7 6 13 16 11 4 13 1 7 12 10 9 7 4 4 4 6 10 10 5 3 2 4 5 4 4 4 4 4 3 4 4 5 5 5 4 4 4 4 5 5 7 5 5 5 5 5 5 4 5 5 4 4 4 4 4 5 5 5 5 5 5 5 5 5
0 10 3 8 21 10 4 8 5 11 12 13 8 10 10 6 6 6 1 13 2 7 3 5 7 15 11 14 1 1 9 12 9 8 5 7 7 8 9 7 3 5 5 5 5 5 4 4 4 4 4 3 4 4 4 4 4 4 4 4 4 5 4 4 4 3 3 3 3 3 3 2 3 2 3 3 3 3 3 4 5 5 5 6 6 6
2 7 0 5 8 6 9 13 14 13 3 3 6 10 2 1 8 11 12 4 6 11 5 10 10 15 9 8 4 2 3 7 6 8 10 13 11 9 6 3 6 6 6 5 4 4 4 4 4 4 4 4 4 4 4 4 3 4 3 4 4 4 3 3 4 3 4 3 3 3 2 3 3 3 3 3 3 3 3 3 3 4 4 5 6 5
8 3 12 1 1 8 10 9 16 17 16 4 5 8 2 5 1 2 2 10 5 4 11 7 10 5 7 7 9 11 11 9 10 10 9 9 9 6 5 8 6 6 7 6 5 5 4 4 4 3 2 3 3 3 3 3 4 3 3 4 4 5 4 5 4 4 3 3 3 3 4 4 4 4 3 3 3 3 3 3 3 3 4 4 5 5
1 7 12 3 5 10 9 13 21 18 15 13 12 13 15 13 9 8 11 4 6 5 5 5 17 7 5 4 10 13 13 13 12 10 9 9 7 6 4 3 5 7 5 5 5 5 5 4 3 2 2 2 3 3 4 3 3 4 5 4 4 5 6 4 5 4 3 3 3 4 4 4 3 4 4 4 5 5 4 4 4 4 4 4 4 4
11 1 3 8 7 12 13 6 4 2 8 15 16 14 16 14 12 11 14 10 2 10 3 2 4 15 5 6 7 6 8 9 10 8 9 6 6 5 4 3 3 4 7 7 6 5 4 4 3 3 3 3 3 4 3 3 4 4 4 4 4 5 4 3 3 3 3 3 4 4 4 3 4 3 4 4 4 5 5 5 4 4 5 5 5 4
7 2 1 3 1 6 7 5 3 1 7 10 13 12 13 16 15 14 11 6 5 2 9 6 12 18 6 2 7 8 4 3 1 4 7 6 5 4 5 4 5 6 5 4 4 3 3 3 2 2 3 3 3 4 4 3 3 4 4 4 4 5 4 3 3 3 3 3 4 4 4 5 4 5 5 5 4 4 4 3 3 3 4 5 5 6
8 4 11 8 3 1 7 6 5 2 3 9 12 14 13 10 13 1 2 1 9 12 15 12 19 12 3 2 1 3 4 5 6 6 6 8 5 6 6 5 5 5 5 6 6 5 3 3 4 5 4 4 4 4 4 4 4 4 4 3 3 3 2 3 2 3 3 3 4 5 5 5 5 6 6 6 5 4 4 4 4 3 3 4 4 4
13 8 13 14 14 9 12 12 12 10 11 6 3 8 10 13 13 7 14 7 13 9 12 12 12 12 3 1 1 2 5 5 7 8 7 6 9 10 7 5 6 6 8 6 5 4 7 6 4 4 4 4 4 4 4 4 4 4 3 3 2 3 3 3 2 2 3 3 5 5 5 4 4 5 4 4 4 4 4 4 4 4 4 3 4 4
4 8 13 14 16 17 10 7 3 5 4 9 6 9 15 17 19 16 11 13 15 9 15 14 14 15 16 5 7 4 5 9 10 5 6 7 6 4 4 7 9 11 11 10 9 7 4 4 7 6 5 4 4 4 4 4 4 3 3 3 2 2 2 2 2 3 4 4 4 4 4 4 4 4 4 4 4 3 3 3 3 3 3 3 3 4
3 9 15 15 18 18 14 13 4 13 12 14 16 18 14 15 16 17 16 17 13 13 21 10 14 16 22 17 10 6 8 9 6 8 9 9 8 10 10 9 8 5 5 5 6 8 10 9 7 6 6 5 5 4 3 2 2 3 3 3 1 1 2 1 2 3 3 4 4 4 4 3 3 3 3 3 3 3 3 3 3 3 3 2 3 3
3 10 13 14 18 16 20 17 10 6 13 14 17 18 19 17 16 20 20 19 17 17 18 13 18 18 18 17 16 15 11 11 11 12 12 9 6 5 5 8 10 12 10 9 10 9 8 9 9 9 7 7 5 5 4 3 2 1 1 0 0 1 1 0 2 3 3 3 4 3 2 1 1 1 1 1 0 1 2 3 3 3 3 4 4 3
1 9 12 13 16 18 18 16 15 11 4 10 17 20 22 20 22 22 21 22 22 19 13 17 18 20 16 18 14 10 5 8 8 4 3 4 8 11 10 11 13 13 12 12 12 11 10 10 9 9 7 6 6 6 5 4 4 4 4 3 2 2 0 2 2 3 3 4 4 3 3 3 3 3 4 6 7 6 6 6 6 6 5 5 4 4
3 3 5 7 9 15 17 16 13 15 14 14 13 16 19 20 19 20 19 19 20 20 19 18 19 20 13 9 11 8 6 7 5 6 11 11 11 13 15 16 15 13 13 12 11 12 11 8 6 6 7 8 8 8 6 6 5 4 2 1 1 1 1 2 4 4 4 4 3 3 4 4 4 3 4 4 4 4 4 4 5 4 4 5 5 6
6 4 4 1 9 11 13 15 16 15 17 19 18 16 14 13 15 14 16 16 16 20 21 22 21 17 13 15 16 17 5 9 11 13 13 13 14 15 16 16 14 12 12 14 15 12 10 9 9 10 11 10 9 8 7 6 5 3 3 2 1 1 0 2 2 3 2 1 1 2 2 2 2 2 3 3 3 4 4 4 4 4 4 5 7 7
6 3 3 1 7 7 11 9 14 14 13 16 19 18 17 16 15 14 16 17 19 17 17 17 17 16 20 18 18 19 18 11 12 13 14 14 13 13 15 16 15 16 17 17 15 12 12 13 13 13 11 8 9 9 7 6 6 5 5 4 3 2 2 2 2 2 2 1 0 1 1 2 3 3 3 4 3 3 3 3 4 4 5 6 4 4
5 8 8 3 6 1 4 3 2 8 17 15 11 20 23 24 21 19 17 19 20 17 16 16 18 17 18 20 21 22 20 14 12 13 14 15 13 13 15 15 17 18 16 13 11 13 13 10 9 10 11 10 7 6 6 6 7 6 5 5 4 4 4 4 3 3 2 1 1 1 1 1 2 3 4 4 4 4 4 4 5 4 3 3 4 4
8 7 6 3 4 10 13 11 11 15 10 2 4 5 12 22 22 22 22 19 17 16 17 18 19 19 22 18 18 18 19 18 14 16 17 18 18 17 18 16 14 12 13 12 12 11 11 12 11 9 6 6 8 6 6 6 4 5 4 4 5 4 4 3 4 3 2 2 1 1 2 2 2 3 3 3 3 3 4 4 4 5 5 5 6 7
7 9 3 3 4 4 5 5 9 5 4 2 6 8 3 5 14 16 16 18 18 19 20 23 24 23 21 19 18 18 22 19 9 9 15 15 11 11 11 13 15 15 15 15 16 15 13 13 15 15 15 9 6 7 7 8 6 6 6 4 4 4 3 3 3 3 2 3 2 2 2 2 2 2 3 3 3 3 4 4 4 6 6 4 4 3
10 6 4 7 6 8 6 10 12 5 12 9 7 6 7 7 7 13 15 18 21 21 20 17 19 21 21 20 21 22 11 0 5 9 6 12 12 13 16 17 19 19 19 16 15 17 18 17 15 13 8 8 9 9 9 7 7 6 6 5 4 4 3 3 3 2 2 2 1 1 1 1 2 2 3 3 4 4 4 4 5 4 3 5 5 4
11 12 7 9 6 9 10 12 7 7 10 11 12 11 10 11 10 11 12 15 14 15 17 18 19 22 22 22 23 22 1 7 14 16 13 13 15 16 14 16 17 17 16 15 14 13 10 8 6 7 12 11 10 9 7 7 7 7 7 6 4 4 3 3 3 2 1 1 0 1 1 1 2 2 3 3 4 5 4 4 4 4 3 5 8 8
14 14 12 12 9 7 8 10 10 9 8 8 15 10 10 12 13 4 6 13 14 17 14 16 20 23 24 22 23 1 3 12 15 16 20 13 14 13 17 17 14 15 16 17 17 14 11 13 13 12 9 9 11 9 7 8 8 8 8 6 6 4 5 4 3 3 2 1 1 0 0 1 1 1 2 3 3 3 4 5 5 5 4 4 4 6
15 11 9 12 13 12 10 10 9 4 7 10 10 4 4 6 9 8 9 8 18 22 18 15 16 22 23 23 3 6 12 13 16 19 25 10 16 19 19 17 13 10 10 10 10 15 15 12 11 10 12 13 13 9 9 8 8 8 8 7 5 5 5 4 4 3 2 2 1 0 0 0 1 1 2 3 3 3 4 4 5 5 6 5 4 6
12 11 13 17 13 16 18 12 6 6 2 10 5 4 2 7 8 10 14 10 18 16 8 13 19 21 19 6 9 12 14 18 21 25 14 4 8 11 15 15 16 17 17 15 14 10 11 14 18 19 18 13 11 10 9 8 8 7 6 6 5 5 5 4 3 3 2 1 0 0 1 1 1 3 3 3 3 3 3 4 5 6 6 7 7 7
7 8 7 12 16 15 12 13 12 8 7 7 3 9 8 5 4 9 14 15 10 1 9 14 15 17 13 9 12 14 18 19 20 19 7 6 11 14 13 12 8 3 1 4 10 13 12 11 9 8 7 7 11 10 9 8 9 7 7 5 6 5 4 3 3 3 2 1 0 0 1 2 2 1 3 3 3 5 5 3 3 4 5 6 7 8
12 8 9 12 9 9 10 12 12 13 5 14 7 2 2 8 11 14 11 5 8 11 8 10 14 16 13 12 15 18 20 19 16 18 18 6 6 8 10 9 12 14 14 13 9 10 15 13 13 13 12 9 9 8 8 9 9 7 6 7 6 4 3 3 3 3 3 1 1 1 1 1 2 2 1 2 2 2 5 5 4 4 4 5 6 7
13 9 6 8 8 7 11 13 8 6 11 9 16 12 12 18 15 9 5 12 8 4 6 6 9 11 10 13 15 17 19 20 18 14 4 5 6 6 8 11 10 11 12 13 18 18 16 14 12 11 9 8 7 7 7 10 9 7 6 6 3 3 3 3 3 3 2 1 1 1 2 2 2 2 1 2 2 2 4 6 5 4 5 4 5 6
10 12 12 13 12 12 11 12 13 13 14 9 16 12 15 18 14 3 6 8 10 7 5 7 10 10 9 14 16 17 17 18 17 8 9 9 9 10 12 12 14 15 16 16 15 14 14 17 16 13 10 7 8 6 6 5 10 7 6 3 3 3 3 2 2 1 0 0 1 1 2 2 2 2 2 2 1 2 4 4 4 5 5 5 6 6
11 17 9 8 6 7 7 3 3 9 8 8 9 10 12 11 6 7 9 11 10 8 8 10 11 12 12 12 13 13 14 11 6 7 8 7 10 9 9 9 6 5 7 8 10 11 10 11 12 13 13 7 6 7 5 5 8 9 4 2 3 2 3 3 1 0 1 1 2 3 2 3 4 2 2 3 2 3 4 4 5 6 6 6 7 7
6 7 9 9 3 9 11 8 9 13 15 17 16 9 5 5 9 11 12 14 14 9 9 10 11 9 10 8 11 13 11 5 6 8 7 7 9 11 12 12 13 15 17 16 15 14 13 14 13 13 12 11 5 6 5 5 4 5 4 4 2 3 2 2 1 0 1 2 3 3 2 3 4 5 4 3 3 3 4 5 5 6 7 6 7 8
7 8 10 11 8 13 12 13 15 16 12 9 10 8 10 14 15 11 12 10 7 4 5 8 5 5 4 6 9 9 12 7 9 8 8 9 11 11 11 11 11 8 5 10 12 12 13 14 14 13 12 11 8 5 5 4 4 2 1 3 3 3 3 1 0 1 2 3 2 3 3 3 5 6 6 5 4 6 6 5 5 6 8 7 7 8
2 7 6 6 11 11 9 7 4 6 10 12 11 12 15 17 17 11 6 6 5 6 7 5 7 8 7 10 6 6 6 6 9 10 10 8 7 8 8 9 8 11 14 13 9 12 13 12 13 12 11 9 6 6 5 4 2 1 3 3 3 3 2 0 0 1 2 3 2 4 3 3 4 5 5 7 6 6 6 7 7 8 9 7 7 8
7 10 6 9 10 11 13 17 14 9 11 15 19 21 18 8 4 6 5 6 9 10 9 9 9 7 6 5 5 6 8 7 6 7 9 9 9 9 9 9 9 10 9 8 9 10 11 11 13 12 10 8 6 6 6 5 4 4 3 3 3 3 2 1 1 0 2 1 1 2 3 3 4 4 5 6 7 8 8 9 13 11 9 10 10 15
16 17 12 13 14 16 20 22 15 13 14 11 9 9 10 7 7 8 10 12 14 13 11 10 7 3 4 6 5 8 8 8 8 7 7 6 7 7 10 13 13 11 11 11 12 11 12 10 10 10 9 7 6 7 6 5 4 4 4 3 1 2 2 2 1 0 1 1 2 3 3 3 4 4 5 6 6 7 8 9 6 14 20 19 16 14
Wind_Direction
131 184 200 206 210 200 201 202 192 155 166 123 107 169 216 214 277 274 267 251 353 23 236 230 244 248 257 264 266 263 229 230 252 257 253 255 261 261 262 262 262 260 253 252 254 258 245 244 239 237 225 236 233 231 222 218 217 212 210 188 215 209 188 184 185 189 187 192 194 210 213 220 213 212 209 213 215 212 215 209 211 214 216 214 212 212
126 201 224 216 199 194 203 186 203 242 73 136 176 197 241 187 242 251 265 343 336 170 292 262 254 249 250 264 268 275 240 241 231 246 252 253 249 253 258 262 259 257 273 270 271 258 248 242 233 230 230 225 223 234 208 214 218 211 199 200 219 181 191 196 196 194 192 198 199 195 208 211 207 201 201 217 212 217 211 208 212 215 215 213 215 212
199 216 224 195 167 133 123 168 204 211 231 229 182 204 257 254 272 284 264 236 251 53 264 287 265 262 252 250 264 262 259 237 220 223 240 245 251 244 246 254 262 274 270 261 248 261 264 263 256 205 221 222 218 226 205 223 217 206 200 215 213 193 194 202 197 187 203 205 207 202 206 192 206 210 209 218 213 204 213 215 216 215 214 214 219 213
222 235 223 163 140 119 155 172 183 209 231 225 197 164 223 229 154 289 298 20 290 181 248 332 288 274 257 248 254 256 255 252 218 226 236 235 242 243 238 239 253 256 259 267 259 255 255 253 262 235 215 221 216 236 234 226 217 211 208 214 206 204 201 198 199 202 213 203 198 211 176 172 187 194 197 206 199 208 210 224 218 220 216 212 218 211
214 7 146 167 164 168 177 172 180 201 224 222 217 225 233 168 256 175 261 315 269 300 279 310 287 281 244 255 246 246 242 255 241 226 244 251 242 249 269 275 244 250 254 261 272 271 268 269 263 262 258 202 209 220 221 217 213 211 214 214 206 204 202 202 198 205 197 165 177 164 124 90 103 52 160 184 230 217 218 228 214 225 211 216 219 212
246 241 186 157 146 181 176 180 202 190 229 235 227 219 214 146 209 292 338 -0 4 320 315 150 334 273 252 216 237 256 258 252 247 215 237 246 247 244 249 245 252 253 248 246 253 256 262 267 278 286 293 288 260 239 228 208 230 229 236 230 215 210 207 206 204 196 172 188 180 164 176 198 209 217 192 211 221 210 208 220 232 229 209 217 223 219
231 143 154 171 172 186 192 203 202 168 212 209 254 192 198 203 203 187 252 97 272 258 311 62 187 278 77 288 242 257 257 259 291 219 240 237 243 239 240 244 245 249 257 248 250 259 262 258 264 274 271 273 286 277 283 247 221 216 223 223 214 212 219 217 205 174 174 185 189 193 199 206 203 212 228 228 243 256 233 222 228 217 202 211 216 224
151 171 165 178 175 184 195 211 189 171 167 237 226 151 191 200 205 211 181 200 250 70 272 202 172 263 291 261 209 234 247 269 280 265 253 248 243 243 243 245 243 242 243 245 244 243 241 251 242 260 267 245 238 256 272 273 263 231 233 221 216 214 214 208 176 169 182 191 195 199 213 219 224 219 240 241 258 199 202 201 221 206 213 209 211 218
165 147 183 179 183 191 205 206 171 164 173 226 136 155 193 185 200 193 186 232 237 15 276 248 116 287 246 281 319 171 224 261 263 266 259 249 244 243 247 245 240 238 240 236 248 251 256 259 250 239 260 255 254 264 264 262 267 260 233 214 214 218 216 193 160 167 183 187 182 189 193 221 227 228 238 224 153 181 183 207 226 212 213 208 211 213
302 192 186 173 182 207 205 202 160 174 202 250 156 84 104 152 187 175 198 204 286 255 260 244 149 225 275 186 183 335 202 230 239 250 250 245 234 229 237 245 247 250 255 251 246 263 276 257 257 243 254 289 294 292 275 263 254 249 230 205 200 213 197 174 165 170 179 183 173 182 195 207 224 216 237 229 236 224 194 207 227 224 220 217 213 221
184 347 169 172 199 204 194 178 177 188 172 112 98 92 38 50 92 59 107 132 65 246 249 216 161 181 281 215 192 165 215 189 222 251 259 254 250 244 241 248 256 247 243 252 264 254 238 251 261 291 291 296 309 301 296 296 285 267 213 206 198 221 159 165 172 174 183 182 185 195 199 207 222 222 214 231 245 237 216 229 240 237 235 215 223 217
93 139 165 264 119 71 127 142 41 171 153 132 132 119 90 354 73 104 220 123 218 249 251 138 189 181 223 280 208 207 268 211 196 215 230 238 241 246 238 236 235 231 230 224 231 259 279 300 310 325 321 313 307 343 9 357 348 5 26 99 95 33 21 152 166 175 178 179 192 201 199 209 221 219 211 220 242 240 232 230 243 243 231 232 227 222
214 184 256 334 286 143 150 123 287 168 169 159 113 132 149 206 147 222 164 209 207 232 132 163 164 196 221 252 206 272 236 236 240 226 222 227 241 247 254 247 252 250 181 198 228 245 248 232 14 323 318 339 17 23 15 19 34 52 59 69 75 41 24 26 52 155 175 174 189 196 206 219 223 225 223 229 240 249 240 231 236 236 237 236 232 229
216 180 179 205 167 184 149 180 135 192 182 183 170 165 158 178 193 227 215 288 293 266 234 187 169 209 263 273 243 240 235 229 219 223 234 230 231 237 246 278 287 271 233 213 216 238 259 194 239 205 158 109 74 52 48 50 66 73 78 76 78 62 46 55 61 62 76 57 82 212 206 216 210 225 223 228 234 246 239 233 236 233 236 237 232 235
222 200 211 172 214 170 186 189 180 160 163 196 174 187 192 184 181 212 199 204 205 232 128 208 118 220 191 224 313 251 274 246 238 232 234 250 256 267 278 281 299 289 278 233 233 248 245 223 166 135 123 112 95 87 77 72 73 81 74 73 77 67 45 55 56 56 57 53 48 45 43 35 277 243 243 251 251 265 268 255 248 253 248 244 253 240
219 241 144 191 142 161 187 188 170 139 173 196 191 192 216 215 218 194 197 175 222 213 196 211 212 205 221 10 255 223 302 301 305 265 230 246 252 258 274 268 262 277 289 305 145 113 109 118 119 117 112 109 102 93 80 63 57 73 76 79 76 79 67 62 62 57 60 53 54 46 43 31 29 14 347 326 313 297 280 275 261 266 262 253 259 261
191 232 144 180 174 179 180 168 184 147 201 172 186 210 208 28 95 20 347 162 74 52 240 161 270 262 316 289 277 276 298 278 266 252 216 233 243 251 256 252 244 267 294 0 131 130 119 102 94 102 112 103 95 86 79 71 56 69 76 81 77 70 63 58 58 61 53 52 53 40 42 34 30 23 17 358 345 338 333 330 315 300 293 295 289 286
211 242 165 151 198 205 184 176 175 190 134 130 208 198 87 140 108 176 231 28 145 208 245 179 221 245 208 272 279 219 239 253 269 262 223 265 259 251 245 245 229 232 102 80 88 85 103 113 114 102 81 82 86 88 83 69 54 51 53 65 83 68 67 47 51 55 51 54 58 49 44 41 35 29 13 11 358 350 349 343 339 333 332 331 322 317
180 252 265 211 185 182 89 133 210 221 193 207 200 148 169 179 220 213 175 231 168 231 260 263 208 240 200 236 125 323 226 232 232 257 284 267 244 236 242 247 182 136 116 108 115 119 122 124 114 109 102 80 71 67 72 69 60 59 53 51 65 74 71 69 55 64 56 53 59 60 63 69 63 53 47 23 10 9 6 352 346 339 330 328 334 330
7 239 60 212 200 134 156 166 201 205 229 22 118 176 193 186 229 198 207 262 212 241 249 247 170 244 202 238 193 241 221 229 223 249 241 239 238 237 239 201 163 141 138 142 142 147 143 133 122 118 113 102 91 83 71 78 83 75 80 87 82 79 76 68 60 59 64 54 68 58 57 46 43 40 42 27 27 20 12 349 344 335 334 329 321 322
241 159 238 150 181 160 188 189 204 191 190 193 189 174 227 222 266 69 274 215 202 210 231 273 261 240 238 191 197 203 218 208 203 208 220 227 232 230 203 176 165 152 152 157 158 162 159 147 137 122 124 107 86 80 77 86 85 84 79 70 64 71 57 54 41 49 46 51 49 54 49 37 34 29 24 30 39 39 19 359 345 338 326 319 327 327
225 199 217 169 172 204 201 198 206 199 180 179 179 194 189 189 215 216 240 206 216 199 215 204 248 265 268 203 196 202 221 219 223 207 207 220 216 200 186 179 161 154 159 159 173 173 167 159 142 131 97 92 95 87 81 64 77 65 60 58 53 58 47 40 28 27 23 34 47 53 46 42 40 32 25 29 28 27 15 4 354 337 336 338 323 334
192 160 189 212 197 199 209 223 288 219 173 188 188 207 192 204 201 208 222 212 184 226 243 219 327 261 206 183 207 210 218 218 221 202 212 208 202 184 181 186 192 166 161 174 179 185 180 166 159 150 138 125 113 105 99 83 80 81 74 69 63 72 51 47 30 23 24 34 44 43 40 45 45 40 45 46 33 25 11 1 349 344 345 337 334 334
82 228 63 296 321 283 309 310 330 25 164 197 220 211 194 207 203 216 222 213 222 188 221 244 247 255 246 196 198 201 197 207 190 194 205 198 191 174 180 201 179 165 174 183 195 199 185 167 163 144 143 137 133 123 122 120 100 84 72 66 67 64 51 41 31 29 44 45 50 41 40 39 27 35 34 39 28 22 10 355 348 341 347 341 336 340
212 174 221 220 247 24 250 293 303 300 183 207 204 212 213 206 209 202 104 113 226 198 214 203 239 260 275 257 262 117 140 160 192 216 200 194 189 186 192 194 185 177 172 188 191 188 182 177 181 184 175 156 146 139 127 117 107 101 93 80 71 64 50 48 32 51 53 57 58 43 43 33 27 29 23 21 10 9 1 358 353 355 353 348 347 341
215 171 198 217 204 188 189 201 203 210 210 208 239 217 221 207 202 181 220 196 236 216 220 227 251 255 260 353 295 134 166 194 217 205 197 204 186 182 191 185 180 176 191 192 190 183 194 194 187 178 176 162 158 143 131 121 118 109 102 83 80 67 49 36 39 63 72 66 66 52 45 36 31 28 18 5 1 357 351 348 356 352 346 353 343 343
214 199 219 221 222 229 227 234 181 142 120 205 196 192 213 211 208 208 207 220 226 224 238 225 233 256 252 218 238 214 196 192 214 228 205 209 227 222 203 186 184 189 189 189 189 195 182 185 194 189 182 175 157 147 136 132 118 108 100 81 59 52 55 35 49 47 68 62 71 61 44 33 24 12 5 359 346 340 343 347 338 339 345 337 338 345
149 212 224 223 227 237 240 239 195 165 190 198 206 220 211 210 213 213 214 224 211 221 240 221 228 233 246 240 222 212 225 223 214 199 209 211 199 188 191 196 197 190 198 195 199 195 192 190 187 190 187 177 171 154 140 126 133 134 121 94 52 38 58 31 65 71 75 76 68 62 35 18 353 359 345 330 329 332 326 326 332 332 313 321 350 354
218 223 224 222 235 232 234 238 225 193 195 196 210 215 219 211 210 218 223 226 219 226 237 229 231 234 247 248 238 224 197 207 204 208 211 203 178 178 178 186 193 200 200 199 207 203 195 187 191 191 189 185 165 159 160 149 124 88 76 226 331 70 46 307 106 97 95 88 69 52 33 5 324 303 289 267 261 297 347 348 350 351 355 1 1 351
40 238 233 218 229 234 237 232 232 214 224 222 213 211 215 210 211 213 219 224 225 235 237 241 244 241 237 251 249 249 191 198 217 205 103 135 182 193 196 198 200 199 196 200 203 203 203 201 190 188 180 179 178 175 174 171 170 171 166 173 181 153 168 143 133 98 74 58 40 24 21 15 9 4 2 11 10 3 354 352 350 352 355 354 349 342
150 307 252 241 231 241 240 237 229 227 219 226 227 231 221 218 215 214 219 223 228 238 240 246 250 251 247 261 269 257 197 195 165 155 188 195 193 193 197 200 201 199 202 204 206 207 208 201 196 183 183 188 186 187 179 180 181 181 169 145 62 40 357 56 58 56 54 43 9 7 5 9 359 349 1 351 351 347 351 347 342 348 351 350 350 350
158 287 16 286 239 238 236 233 231 226 225 229 229 227 231 231 231 217 221 218 218 224 227 235 242 249 255 247 250 255 208 169 186 189 197 206 203 196 197 201 199 198 203 207 208 207 198 197 194 193 193 194 192 187 184 181 183 153 166 180 177 196 38 75 86 93 78 46 355 355 6 350 337 342 333 348 350 350 339 333 345 353 353 352 351 349
178 171 219 166 279 263 259 232 238 232 238 240 230 223 221 224 220 216 221 220 224 221 227 228 236 236 243 244 248 251 244 210 201 193 203 211 207 194 199 201 199 201 204 206 206 199 198 197 196 194 195 190 192 189 192 172 156 174 177 168 194 136 135 149 152 151 146 170 165 355 348 345 1 352 356 356 348 341 344 344 352 356 358 355 335 324
188 191 234 183 236 245 287 336 262 228 227 224 212 211 211 219 216 218 218 216 221 211 226 226 234 235 239 244 244 249 253 238 206 210 198 199 207 207 209 206 200 203 208 209 201 197 200 198 199 200 197 193 187 186 178 173 168 178 169 160 149 151 166 152 165 153 155 146 142 90 14 12 10 7 349 345 346 350 354 1 359 341 325 323 330 339
194 201 220 191 250 258 270 272 269 240 272 350 253 263 229 228 223 224 230 226 222 223 232 242 244 241 240 240 247 250 253 252 218 204 211 211 206 200 199 203 208 211 211 206 206 207 201 195 197 194 187 195 188 185 166 178 175 150 146 158 156 169 154 163 144 143 140 108 70 61 46 32 22 6 350 346 342 347 356 352 342 344 344 347 343 339
199 206 186 227 188 251 256 220 248 229 164 167 289 283 277 232 232 240 248 244 235 227 218 226 233 239 242 244 244 243 243 253 257 223 217 217 211 198 192 201 207 209 212 210 202 200 192 195 194 190 195 180 160 178 179 179 169 157 167 160 154 161 162 149 131 110 97 78 56 49 26 32 11 353 346 343 342 349 349 351 341 334 331 334 325 306
207 219 199 241 192 237 220 244 246 302 297 280 275 249 153 197 201 208 231 237 232 232 230 231 237 241 244 246 246 249 247 351 245 259 230 210 206 207 196 201 203 208 212 210 196 198 199 197 192 187 163 163 177 171 185 173 162 155 147 149 161 149 149 135 112 101 85 68 49 39 19 21 6 349 343 341 348 348 346 342 336 326 320 325 319 320
207 217 192 218 221 189 238 258 261 239 251 267 230 237 209 211 206 203 211 248 252 243 237 232 235 240 239 241 242 245 150 256 262 259 232 209 208 204 210 211 210 208 205 202 202 207 197 183 163 161 166 168 175 178 167 162 158 150 150 154 158 146 146 131 139 166 139 104 199 353 356 351 354 345 337 346 344 333 325 317 310 316 334 333 328 329
214 212 212 209 235 231 218 231 241 252 240 232 259 230 212 208 212 163 189 245 249 236 224 221 229 236 238 237 243 156 148 247 256 259 261 214 195 199 207 213 208 202 200 197 188 186 182 182 173 164 155 159 170 181 168 161 156 150 153 156 159 158 150 159 165 176 175 187 183 199 244 292 306 310 318 319 309 312 315 318 314 309 317 318 314 307
209 219 223 229 221 228 233 240 244 202 239 239 250 259 219 172 121 135 229 236 248 242 222 217 222 235 237 240 197 148 216 241 244 252 252 233 170 199 201 207 202 197 199 192 195 191 177 152 135 153 166 174 180 163 162 158 155 154 150 159 152 154 163 172 184 185 177 173 168 180 204 221 289 289 294 297 297 297 301 308 319 325 329 320 318 313
203 216 211 219 217 227 226 238 251 264 268 262 214 195 107 136 134 183 212 234 240 246 198 204 221 230 239 219 143 221 226 224 235 243 257 149 177 198 206 202 193 187 185 184 185 154 155 169 171 173 176 173 157 155 159 156 147 150 153 149 151 173 185 188 172 159 159 144 125 342 310 305 288 304 300 287 293 297 308 321 320 323 329 325 325 324
200 205 212 218 225 228 232 231 235 245 220 213 223 162 149 111 201 215 220 230 258 272 164 200 220 232 230 184 199 221 236 234 238 253 252 199 186 198 191 191 173 148 108 160 157 158 161 161 156 139 136 150 155 157 157 152 145 147 148 151 171 193 185 152 160 150 141 153 174 225 274 273 282 258 279 305 324 324 315 312 312 308 312 314 316 315
183 187 193 201 205 223 224 236 230 235 225 201 127 22 198 199 230 231 236 252 219 231 187 198 208 224 211 210 212 222 236 244 239 240 241 201 192 178 176 161 170 170 164 152 160 177 160 158 160 164 160 156 152 154 156 147 144 149 152 159 196 181 157 165 157 157 152 153 185 237 248 261 268 280 284 296 300 307 302 308 319 305 300 298 300 299
162 205 183 216 178 201 204 215 211 204 240 165 157 196 195 209 226 223 188 250 248 213 209 205 223 221 202 206 217 228 233 239 243 243 208 180 193 185 179 182 178 174 169 174 169 168 168 156 152 146 146 147 151 154 157 149 144 148 149 182 191 140 146 144 143 132 129 168 230 252 271 271 275 271 276 274 289 291 289 299 300 295 288 277 281 293
172 204 177 207 184 199 198 210 214 217 223 191 188 205 205 215 223 148 196 230 249 243 197 201 224 224 205 208 220 223 234 234 238 213 192 199 180 176 176 177 173 170 169 162 169 166 163 155 151 142 141 148 150 153 153 147 137 138 152 204 123 143 132 119 105 109 123 252 264 271 275 298 294 292 284 272 239 272 277 285 281 293 289 292 288 280
192 205 202 223 227 223 253 224 216 238 242 247 228 221 217 225 227 211 225 249 242 226 177 203 218 217 217 215 218 234 232 238 212 203 202 181 182 186 183 172 164 150 148 141 137 152 141 129 130 138 142 148 154 145 145 130 133 140 191 111 111 104 110 112 105 60 311 299 296 294 309 326 312 293 269 262 234 227 252 263 285 285 287 287 280 276
230 197 205 212 197 181 228 205 211 218 219 227 229 224 252 243 223 205 216 227 241 225 222 228 224 220 219 206 213 227 240 204 206 213 192 180 184 179 177 174 170 165 159 159 159 143 138 136 137 143 145 147 166 147 142 133 119 112 113 112 99 92 99 94 96 330 326 298 301 310 329 322 311 315 318 312 308 292 282 281 276 275 275 269 277 277
250 177 202 207 204 207 230 216 217 225 231 230 224 220 220 230 231 220 214 223 227 228 215 229 225 243 155 196 211 211 234 213 195 196 188 187 184 179 177 171 157 144 144 143 146 142 136 140 141 144 144 148 160 154 140 132 142 124 102 92 93 106 96 92 141 254 284 297 308 316 324 322 314 321 318 309 304 294 289 271 255 262 259 262 266 281
190 116 211 176 214 230 255 270 254 247 247 244 236 225 223 220 222 217 203 204 190 211 224 222 203 211 184 220 199 209 231 223 200 190 184 179 172 172 169 157 157 149 142 141 145 141 141 139 137 140 139 145 147 135 130 129 132 113 81 93 133 124 110 126 190 279 310 314 341 321 323 316 313 307 306 300 294 268 255 270 271 262 265 237 237 242
131 203 184 174 220 223 220 227 209 215 234 233 229 229 230 230 211 209 186 204 215 219 214 210 222 215 208 210 185 182 209 214 195 176 179 175 169 153 139 135 133 130 126 125 122 122 119 127 132 138 137 135 134 133 130 141 119 101 121 135 144 133 116 137 137 70 305 306 303 293 311 312 307 299 291 287 285 290 281 238 239 245 249 274 236 234
200 206 180 200 204 223 224 229 218 220 243 251 246 240 224 204 197 208 205 213 220 220 212 207 225 234 235 236 194 184 201 188 177 151 142 139 139 142 144 143 139 137 137 137 123 123 124 127 127 125 126 133 133 128 128 107 64 56 50 73 105 119 123 121 110 291 287 316 314 309 306 307 295 285 272 271 276 280 289 301 262 246 251 248 256 256